Погода в Каверине

Россия / Рязанская область     54°09′34″N   41°46′17″E
темп.,
°C
ветер,
м/с
пор.,
м/с
влажн.,
%
обл.,
%
осадки,
мм/ч
давл.,
гПа
погр.,
м
15 апреля, чт
чт1500:00+11ююв3463100 0.0 101845
03:00+9ююв336661 0.0 101837
06:00+8юв336961 0.0 101839
09:00+14юв355228 0.0 1018275
12:00+19вюв343755 0.0 1017865
15:00+21вюв442895 0.0 10162031
18:00+18в474499 0.0 1016157
21:00+13в495686 0.0 1016145
16 апреля, пт
пт1600:00+12в41062100 0.0 1016182
03:00+10всв31067100 0.0 1017197
06:00+9всв51272100 0.0 1018297
09:00+13всв71074100 0.4 1019533
12:00+15всв6860100 0.1 1019877
15:00+17всв6754100 0.1 10191302
18:00+15всв61065100 0.0 1019735
21:00+10всв71382100 0.3 1021467
17 апреля, сб
сб1700:00+9всв6138620 0.2 1021403
03:00+7всв61289100 0.2 1022347
06:00+7всв6128790 0.0 1022382
09:00+11всв8117054 0.0 1022568
12:00+15всв7957100 0.0 10221119
15:00+16всв895276 0.0 10221620
18:00+13всв811564 0.0 1022890
21:00+10всв714544 0.0 1023526
18 апреля, вс
вс1800:00+7св614555 0.0 1024443
03:00+5св512655 0.0 1025368
06:00+4св613700 0.0 1026361
09:00+9всв79500 0.0 1026872
12:00+12всв79395 0.0 10261585
15:00+13всв793599 0.0 10261897
18:00+12всв694797 0.0 10271207
21:00+8св41062100 0.0 1028255
19 апреля, пн
пн1900:00+7св5126686 0.0 1029425
03:00+5всв51074100 0.0 1031371
06:00+4св497868 0.0 1032362
09:00+7всв684911 0.0 1033971
12:00+10в68355 0.0 10331559
15:00+10в673079 0.0 10331736
18:00+9в573698 0.0 10331373
21:00+5в4104584 0.0 1035325